DW6619 Weather Reports


Display with metric or nautical units.
time (UTC)temp
F
wind
direction
speed
MPH
gust
MPH
rain 1hr
in
rain 24hr
in
rain mn
in
humidity
%
barometer
mb
20200602114017 56 277 2.0 5.0 0.00 0.00 0.00 78 1019.9
20200602113529 56 217 2.0 5.0 0.00 0.00 0.00 78 1019.9
20200602113017 56 256 2.0 6.0 0.00 0.00 0.00 78 1019.8
20200602112522 56 229 3.0 6.0 0.00 0.00 0.00 78 1019.8
20200602112026 55 193 3.0 7.0 0.00 0.00 0.00 79 1019.8
20200602111512 55 223 4.0 7.0 0.00 0.00 0.00 79 1019.8
20200602111024 55 240 3.0 7.0 0.00 0.00 0.00 79 1019.9
20200602110519 55 239 2.0 5.0 0.00 0.00 0.00 80 1019.9
20200602110033 55 235 3.0 5.0 0.00 0.00 0.00 80 1020.0
20200602105519 55 223 3.0 5.0 0.00 0.00 0.00 80 1020.0
20200602105023 54 224 1.0 4.0 0.00 0.00 0.00 81 1020.0
20200602104529 54 221 2.0 4.0 0.00 0.00 0.00 81 1020.1
20200602104015 54 235 2.0 3.0 0.00 0.00 0.00 81 1020.2
20200602103518 54 250 0.0 2.0 0.00 0.00 0.00 82 1020.2
20200602103026 54 227 0.0 2.0 0.00 0.00 0.00 81 1020.1
20200602102538 54 213 0.0 0.0 0.00 0.00 0.00 82 1020.0
20200602102023 53 215 0.0 0.0 0.00 0.00 0.00 82 1020.2
20200602101525 53 214 0.0 0.0 0.00 0.00 0.00 82 1020.1
20200602101030 53 230 0.0 0.0 0.00 0.00 0.00 82 1020.1
20200602100524 53 230 0.0 1.0 0.00 0.00 0.00 82 1020.1
20200602100028 53 230 0.0 1.0 0.00 0.00 0.00 83 1020.1
20200602095515 53 230 0.0 1.0 0.00 0.00 0.00 83 1020.1
20200602095022 53 218 0.0 4.0 0.00 0.00 0.00 83 1020.1
20200602094535 53 228 2.0 4.0 0.00 0.00 0.00 83 1020.0
20200602094020 52 228 2.0 4.0 0.00 0.00 0.00 84 1020.0
20200602093525 52 182 2.0 4.0 0.00 0.00 0.00 85 1020.0
20200602093038 52 228 1.0 2.0 0.00 0.00 0.00 85 1020.2
20200602092524 52 214 0.0 4.0 0.00 0.00 0.00 86 1020.3
20200602092030 51 218 1.0 4.0 0.00 0.00 0.00 86 1020.4
20200602091533 51 220 0.0 0.0 0.00 0.00 0.00 87 1020.4
20200602091016 51 193 0.0 0.0 0.00 0.00 0.00 87 1020.4
20200602090528 51 196 0.0 0.0 0.00 0.00 0.00 87 1020.5
20200602090017 51 196 0.0 0.0 0.00 0.00 0.00 87 1020.6
20200602085523 51 196 0.0 0.0 0.00 0.00 0.00 87 1020.5
20200602085031 51 196 0.0 0.0 0.00 0.00 0.00 87 1020.5
20200602084517 51 196 0.0 0.0 0.00 0.00 0.00 86 1020.4
20200602084024 51 196 0.0 0.0 0.00 0.00 0.00 86 1020.4
20200602083530 51 196 0.0 0.0 0.00 0.00 0.00 86 1020.4
20200602083018 51 196 0.0 0.0 0.00 0.00 0.00 86 1020.4
20200602082530 51 196 0.0 0.0 0.00 0.00 0.00 85 1020.3
20200602082017 51 196 0.0 0.0 0.00 0.00 0.00 85 1020.3
20200602081523 51 196 0.0 0.0 0.00 0.00 0.00 85 1020.3
20200602081034 51 196 0.0 0.0 0.00 0.00 0.00 85 1020.3
20200602080519 51 196 0.0 0.0 0.00 0.00 0.00 84 1020.2
20200602080025 51 196 0.0 0.0 0.00 0.00 0.00 84 1020.3
20200602075531 51 196 0.0 0.0 0.00 0.00 0.00 84 1020.4
20200602075023 51 196 0.0 0.0 0.00 0.00 0.00 84 1020.4
20200602074528 51 196 0.0 0.0 0.00 0.00 0.00 84 1020.4
20200602074013 51 196 0.0 0.0 0.00 0.00 0.00 84 1020.5
20200602073519 51 196 0.0 0.0 0.00 0.00 0.00 84 1020.5
20200602073032 51 220 0.0 0.0 0.00 0.00 0.00 84 1020.4
20200602072519 51 220 0.0 0.0 0.00 0.00 0.00 84 1020.5
20200602072025 51 220 0.0 0.0 0.00 0.00 0.00 84 1020.6
20200602071538 51 220 0.0 0.0 0.00 0.00 0.00 83 1020.5
20200602071021 51 220 0.0 0.0 0.00 0.00 0.00 83 1020.5
20200602070527 51 220 0.0 0.0 0.00 0.00 0.00 83 1020.5
20200602070121 51 220 0.0 0.0 0.00 0.00 0.00 83 1020.5
20200602065514 51 220 0.0 0.0 0.00 0.00 0.00 82 1020.5
20200602065020 51 220 0.0 0.0 0.00 0.00 0.00 82 1020.5
20200602064512 52 220 0.0 0.0 0.00 0.00 0.00 81 1020.6
20200602064014 52 220 0.0 0.0 0.00 0.00 0.00 80 1020.7
20200602063521 52 220 0.0 0.0 0.00 0.00 0.00 80 1020.8
20200602063035 52 220 0.0 0.0 0.00 0.00 0.00 79 1020.8
20200602062520 52 220 0.0 0.0 0.00 0.00 0.00 78 1020.7
20200602062025 52 220 0.0 0.0 0.00 0.00 0.00 78 1020.7
20200602061530 53 220 0.0 0.0 0.00 0.00 0.00 79 1020.6
20200602061021 53 220 0.0 0.0 0.00 0.00 0.00 78 1020.6
20200602060525 53 220 0.0 0.0 0.00 0.00 0.00 77 1020.7
20200602060029 53 220 0.0 0.0 0.00 0.00 0.00 77 1020.8
20200602055532 53 220 0.0 0.0 0.00 0.00 0.00 76 1020.9
20200602055015 53 220 0.0 0.0 0.00 0.00 0.00 76 1021.0
20200602054520 54 220 0.0 0.0 0.00 0.00 0.00 76 1021.0
20200602054033 54 220 0.0 0.0 0.00 0.00 0.00 76 1021.1
20200602053518 54 220 0.0 0.0 0.00 0.00 0.00 75 1021.2
20200602053025 54 220 0.0 0.0 0.00 0.00 0.00 75 1021.2
20200602052513 54 217 0.0 0.0 0.00 0.00 0.00 74 1021.3
20200602052021 54 217 0.0 0.0 0.00 0.00 0.00 74 1021.3
20200602051534 54 217 0.0 0.0 0.00 0.00 0.00 74 1021.3
20200602051017 54 217 0.0 0.0 0.00 0.00 0.00 73 1021.3
20200602050525 54 217 0.0 0.0 0.00 0.00 0.00 73 1021.4
20200602050036 55 216 0.0 0.0 0.00 0.00 0.00 73 1021.4
20200602045521 55 215 0.0 0.0 0.00 0.00 0.00 73 1021.4
20200602045025 55 216 0.0 0.0 0.00 0.00 0.00 73 1021.5
20200602044531 55 238 0.0 0.0 0.00 0.00 0.00 73 1021.5
20200602044016 55 222 0.0 0.0 0.00 0.00 0.00 73 1021.5
20200602043527 55 222 0.0 0.0 0.00 0.00 0.00 72 1021.5
20200602043014 55 222 0.0 0.0 0.00 0.00 0.00 72 1021.5
20200602042518 55 222 0.0 0.0 0.00 0.00 0.00 71 1021.5
20200602042030 56 222 0.0 0.0 0.00 0.00 0.00 70 1021.5
20200602041515 56 222 0.0 0.0 0.00 0.00 0.00 70 1021.6
20200602041020 56 222 0.0 0.0 0.00 0.00 0.00 69 1021.6
20200602040526 56 222 0.0 0.0 0.00 0.00 0.00 69 1021.7
20200602040028 56 222 0.0 0.0 0.00 0.00 0.00 69 1021.7
20200602035512 56 222 0.0 0.0 0.00 0.00 0.00 68 1021.6
20200602035019 57 223 0.0 0.0 0.00 0.00 0.00 67 1021.7
20200602034532 57 223 0.0 0.0 0.00 0.00 0.00 67 1021.7
20200602034019 57 223 0.0 0.0 0.00 0.00 0.00 67 1021.7
20200602033526 57 223 0.0 0.0 0.00 0.00 0.00 66 1021.7
20200602033014 57 223 0.0 0.0 0.00 0.00 0.00 66 1021.8
20200602032520 57 217 0.0 0.0 0.00 0.00 0.00 66 1021.8
20200602032032 57 215 0.0 1.0 0.00 0.00 0.00 66 1021.9
20200602031518 58 221 0.0 1.0 0.00 0.00 0.00 66 1021.8
20200602031020 58 207 0.0 3.0 0.00 0.00 0.00 64 1021.9
20200602030532 58 203 2.0 3.0 0.00 0.00 0.00 64 1021.8
20200602030017 58 205 1.0 3.0 0.00 0.00 0.00 64 1021.9
20200602025523 58 213 1.0 3.0 0.00 0.00 0.00 64 1021.9
20200602025030 58 213 1.0 3.0 0.00 0.00 0.00 65 1021.9
20200602024525 58 202 1.0 3.0 0.00 0.00 0.00 64 1022.0
20200602024031 58 221 1.0 3.0 0.00 0.00 0.00 65 1021.9
20200602023518 59 214 0.0 0.0 0.00 0.00 0.00 64 1021.9
20200602023026 59 198 0.0 1.0 0.00 0.00 0.00 63 1021.9
20200602022517 59 198 0.0 2.0 0.00 0.00 0.00 63 1021.8
20200602022030 59 196 0.0 2.0 0.00 0.00 0.00 62 1021.8
20200602021516 59 196 0.0 0.0 0.00 0.00 0.00 61 1021.6
20200602021023 60 196 0.0 0.0 0.00 0.00 0.00 60 1021.6
20200602020536 60 196 0.0 0.0 0.00 0.00 0.00 60 1021.6
20200602020022 60 196 0.0 0.0 0.00 0.00 0.00 58 1021.7
20200602015528 61 196 0.0 0.0 0.00 0.00 0.00 57 1021.7
20200602015013 61 196 0.0 0.0 0.00 0.00 0.00 56 1021.6
20200602014520 62 196 0.0 0.0 0.00 0.00 0.00 56 1021.5
20200602014031 62 196 0.0 0.0 0.00 0.00 0.00 55 1021.5
20200602013519 62 196 0.0 0.0 0.00 0.00 0.00 53 1021.4
20200602013027 63 196 0.0 2.0 0.00 0.00 0.00 53 1021.3
20200602012514 63 196 1.0 4.0 0.00 0.00 0.00 52 1021.3
20200602012027 64 200 1.0 4.0 0.00 0.00 0.00 52 1021.3
20200602011513 64 207 0.0 3.0 0.00 0.00 0.00 52 1021.2
20200602011019 64 234 1.0 3.0 0.00 0.00 0.00 51 1021.1
20200602010531 65 203 1.0 4.0 0.00 0.00 0.00 50 1021.1
20200602010017 65 191 2.0 4.0 0.00 0.00 0.00 50 1021.0
20200602005522 65 221 2.0 4.0 0.00 0.00 0.00 49 1021.0
20200602005028 66 200 1.0 3.0 0.00 0.00 0.00 49 1021.0
20200602004513 66 197 0.0 2.0 0.00 0.00 0.00 48 1021.0
20200602004019 66 213 0.0 3.0 0.00 0.00 0.00 48 1021.0
20200602003526 67 207 0.0 4.0 0.00 0.00 0.00 47 1020.9
20200602003037 67 209 1.0 4.0 0.00 0.00 0.00 46 1021.0
20200602002524 67 180 0.0 3.0 0.00 0.00 0.00 44 1021.0
20200602002031 68 227 1.0 3.0 0.00 0.00 0.00 44 1021.0
20200602001517 68 238 2.0 3.0 0.00 0.00 0.00 43 1021.0
20200602001022 68 209 0.0 3.0 0.00 0.00 0.00 43 1021.0
20200602000535 69 217 1.0 5.0 0.00 0.00 0.00 42 1021.0
20200602000021 69 225 1.0 5.0 0.00 0.00 0.00 41 1021.0
20200601235527 69 184 3.0 5.0 0.00 0.00 0.00 41 1020.9
20200601235013 69 232 3.0 6.0 0.00 0.00 0.00 40 1020.9
20200601234526 69 234 3.0 6.0 0.00 0.00 0.00 40 1021.0
20200601234016 70 226 2.0 7.0 0.00 0.00 0.00 39 1020.9
20200601233524 70 238 4.0 7.0 0.00 0.00 0.00 38 1020.9
20200601233029 70 225 2.0 8.0 0.00 0.00 0.00 39 1020.8
20200601232514 70 279 4.0 8.0 0.00 0.00 0.00 38 1020.8
20200601232026 71 240 3.0 9.0 0.00 0.00 0.00 36 1020.7
20200601231531 71 189 3.0 9.0 0.00 0.00 0.00 37 1020.8
20200601231016 71 193 3.0 10.0 0.00 0.00 0.00 37 1020.7
20200601230529 71 227 4.0 10.0 0.00 0.00 0.00 37 1020.8
20200601230014 71 252 4.0 10.0 0.00 0.00 0.00 37 1020.7
20200601225519 72 251 5.0 9.0 0.00 0.00 0.00 36 1020.7
20200601225030 72 200 4.0 9.0 0.00 0.00 0.00 37 1020.6
20200601224516 72 243 2.0 9.0 0.00 0.00 0.00 38 1020.7
20200601224022 72 247 4.0 6.0 0.00 0.00 0.00 37 1020.7
20200601223526 72 279 3.0 7.0 0.00 0.00 0.00 37 1020.6
20200601223013 72 245 3.0 7.0 0.00 0.00 0.00 36 1020.7
20200601222525 72 228 2.0 7.0 0.00 0.00 0.00 37 1020.8
20200601222030 72 213 3.0 7.0 0.00 0.00 0.00 36 1020.8
20200601221516 72 259 4.0 8.0 0.00 0.00 0.00 35 1020.9
20200601221024 72 249 4.0 9.0 0.00 0.00 0.00 35 1020.9
20200601220529 72 239 3.0 9.0 0.00 0.00 0.00 36 1021.0
20200601220013 73 198 3.0 7.0 0.00 0.00 0.00 35 1021.0
20200601215519 73 227 1.0 7.0 0.00 0.00 0.00 36 1021.0
20200601215031 73 264 2.0 7.0 0.00 0.00 0.00 36 1021.2
20200601214516 73 259 1.0 7.0 0.00 0.00 0.00 36 1021.2
20200601214013 73 200 2.0 7.0 0.00 0.00 0.00 36 1021.3
20200601213525 73 326 2.0 7.0 0.00 0.00 0.00 35 1021.2
20200601213029 73 253 3.0 5.0 0.00 0.00 0.00 38 1021.2
20200601212512 73 240 2.0 8.0 0.00 0.00 0.00 36 1021.4
20200601212019 73 355 3.0 9.0 0.00 0.00 0.00 37 1021.5
20200601211530 73 38 3.0 9.0 0.00 0.00 0.00 35 1021.6
20200601211015 73 360 2.0 11.0 0.00 0.00 0.00 36 1021.7
20200601210521 73 250 3.0 5.0 0.00 0.00 0.00 37 1021.8
20200601210033 73 203 1.0 5.0 0.00 0.00 0.00 38 1021.8
20200601205518 73 238 2.0 6.0 0.00 0.00 0.00 38 1021.9
20200601205019 73 200 1.0 6.0 0.00 0.00 0.00 36 1021.9
20200601204524 73 304 1.0 4.0 0.00 0.00 0.00 35 1022.0
20200601204018 73 64 2.0 7.0 0.00 0.00 0.00 34 1022.0
20200601203522 73 256 2.0 7.0 0.00 0.00 0.00 38 1022.1
20200601203013 73 217 2.0 7.0 0.00 0.00 0.00 36 1022.2
20200601202519 73 173 3.0 6.0 0.00 0.00 0.00 36 1022.3
20200601202031 74 57 3.0 6.0 0.00 0.00 0.00 34 1022.3
20200601201512 74 355 1.0 4.0 0.00 0.00 0.00 34 1022.4
20200601201017 74 250 2.0 8.0 0.00 0.00 0.00 36 1022.6
20200601200528 74 274 3.0 8.0 0.00 0.00 0.00 38 1022.7
20200601200014 74 289 2.0 4.0 0.00 0.00 0.00 38 1022.7
20200601195517 74 284 1.0 6.0 0.00 0.00 0.00 33 1022.7
20200601195023 74 5 1.0 4.0 0.00 0.00 0.00 36 1022.7
20200601194535 74 32 2.0 8.0 0.00 0.00 0.00 35 1022.7
20200601194020 75 19 2.0 10.0 0.00 0.00 0.00 33 1022.7
20200601193523 75 242 5.0 10.0 0.00 0.00 0.00 38 1022.9
20200601193036 75 360 3.0 6.0 0.00 0.00 0.00 40 1023.0
20200601192520 75 279 1.0 5.0 0.00 0.00 0.00 36 1023.0
20200601192026 75 41 2.0 5.0 0.00 0.00 0.00 33 1023.0
20200601191511 75 288 2.0 9.0 0.00 0.00 0.00 33 1023.1
20200601191014 75 63 3.0 9.0 0.00 0.00 0.00 35 1023.1
20200601190525 75 329 4.0 9.0 0.00 0.00 0.00 35 1023.2
20200601190029 75 31 2.0 9.0 0.00 0.00 0.00 32 1023.2
20200601185514 75 15 1.0 14.0 0.00 0.00 0.00 37 1023.3
20200601185026 75 5 2.0 8.0 0.00 0.00 0.00 37 1023.3
20200601184529 75 290 2.0 8.0 0.00 0.00 0.00 33 1023.3
20200601184030 75 296 1.0 6.0 0.00 0.00 0.00 38 1023.4
20200601183514 74 319 2.0 9.0 0.00 0.00 0.00 33 1023.5
20200601183023 74 336 2.0 10.0 0.00 0.00 0.00 37 1023.4
20200601182528 74 254 4.0 10.0 0.00 0.00 0.00 33 1023.6
20200601182011 74 236 3.0 9.0 0.00 0.00 0.00 36 1023.6
20200601181523 74 235 2.0 6.0 0.00 0.00 0.00 35 1023.6
20200601181028 74 126 3.0 6.0 0.00 0.00 0.00 32 1023.7
20200601180512 73 27 1.0 4.0 0.00 0.00 0.00 36 1023.7
20200601180026 73 134 1.0 4.0 0.00 0.00 0.00 33 1023.8
20200601175528 73 115 1.0 6.0 0.00 0.00 0.00 38 1023.8
20200601175014 73 117 2.0 7.0 0.00 0.00 0.00 31 1024.0
20200601174521 73 23 3.0 8.0 0.00 0.00 0.00 38 1024.1
20200601174033 73 340 2.0 6.0 0.00 0.00 0.00 43 1024.2
20200601173520 72 338 2.0 4.0 0.00 0.00 0.00 38 1024.3
20200601173028 72 49 2.0 4.0 0.00 0.00 0.00 32 1024.3
20200601172513 73 57 2.0 6.0 0.00 0.00 0.00 34 1024.4
20200601172024 72 344 3.0 11.0 0.00 0.00 0.00 36 1024.6
20200601171514 72 290 3.0 11.0 0.00 0.00 0.00 39 1024.6
20200601171020 72 211 2.0 6.0 0.00 0.00 0.00 33 1024.6
20200601170526 72 76 3.0 10.0 0.00 0.00 0.00 34 1024.6
20200601170013 72 5 4.0 10.0 0.00 0.00 0.00 33 1024.7
20200601165524 72 115 3.0 10.0 0.00 0.00 0.00 34 1024.8
20200601165031 72 32 3.0 10.0 0.00 0.00 0.00 37 1024.9
20200601164516 72 113 2.0 9.0 0.00 0.00 0.00 34 1024.9
20200601164028 72 180 3.0 9.0 0.00 0.00 0.00 33 1025.1
20200601163513 72 299 2.0 9.0 0.00 0.00 0.00 35 1025.1
20200601163016 72 5 2.0 9.0 0.00 0.00 0.00 37 1025.2
20200601162520 71 348 3.0 6.0 0.00 0.00 0.00 39 1025.2
20200601162012 71 38 2.0 6.0 0.00 0.00 0.00 38 1025.3
20200601161518 71 245 1.0 5.0 0.00 0.00 0.00 32 1025.4
20200601161017 72 64 2.0 5.0 0.00 0.00 0.00 34 1025.5
20200601160528 71 56 3.0 5.0 0.00 0.00 0.00 40 1025.6
20200601160014 71 103 1.0 5.0 0.00 0.00 0.00 37 1025.7
20200601155518 71 314 1.0 7.0 0.00 0.00 0.00 35 1025.7
20200601155029 70 253 2.0 8.0 0.00 0.00 0.00 38 1025.7
20200601154516 70 319 2.0 8.0 0.00 0.00 0.00 38 1025.8
20200601154023 70 260 2.0 5.0 0.00 0.00 0.00 43 1025.8
20200601153530 70 315 3.0 5.0 0.00 0.00 0.00 36 1025.7
20200601153018 70 217 1.0 5.0 0.00 0.00 0.00 44 1025.9
20200601152529 70 114 3.0 8.0 0.00 0.00 0.00 38 1026.0
20200601152014 70 306 4.0 8.0 0.00 0.00 0.00 41 1026.0
20200601151517 70 229 2.0 5.0 0.00 0.00 0.00 42 1026.1
20200601151027 70 336 1.0 6.0 0.00 0.00 0.00 40 1026.1
20200601150530 69 209 2.0 6.0 0.00 0.00 0.00 41 1026.2
20200601150017 69 115 4.0 6.0 0.00 0.00 0.00 42 1026.2
20200601145520 69 13 2.0 4.0 0.00 0.00 0.00 42 1026.5
20200601145032 69 42 2.0 8.0 0.00 0.00 0.00 41 1026.5
20200601144517 68 30 2.0 8.0 0.00 0.00 0.00 42 1026.6
20200601144021 68 56 1.0 4.0 0.00 0.00 0.00 45 1026.7
20200601143532 68 59 2.0 5.0 0.00 0.00 0.00 44 1026.7
20200601143020 68 116 2.0 5.0 0.00 0.00 0.00 41 1026.7
20200601142522 67 113 2.0 5.0 0.00 0.00 0.00 42 1026.7
20200601142024 67 73 2.0 5.0 0.00 0.00 0.00 40 1026.8
20200601141536 67 57 2.0 5.0 0.00 0.00 0.00 45 1026.9
20200601141029 66 46 1.0 3.0 0.00 0.00 0.00 44 1027.0
20200601140514 66 78 1.0 5.0 0.00 0.00 0.00 43 1027.0
20200601140026 66 293 1.0 6.0 0.00 0.00 0.00 45 1027.1
20200601135514 66 44 3.0 5.0 0.00 0.00 0.00 43 1027.1
20200601135018 65 34 1.0 4.0 0.00 0.00 0.00 48 1027.0
20200601134520 65 73 1.0 9.0 0.00 0.00 0.00 48 1027.1
20200601134029 65 13 3.0 9.0 0.00 0.00 0.00 49 1027.3
20200601133515 65 88 2.0 7.0 0.00 0.00 0.00 49 1027.3
20200601133023 65 86 3.0 10.0 0.00 0.00 0.00 49 1027.3
20200601132533 64 45 3.0 7.0 0.00 0.00 0.00 49 1027.3
20200601132020 64 342 2.0 8.0 0.00 0.00 0.00 49 1027.5
20200601131527 64 249 2.0 8.0 0.00 0.00 0.00 51 1027.4
20200601131029 63 48 2.0 5.0 0.00 0.00 0.00 51 1027.4
20200601130515 63 333 1.0 5.0 0.00 0.00 0.00 54 1027.4
20200601130029 63 264 2.0 5.0 0.00 0.00 0.00 52 1027.5
20200601125514 62 321 2.0 6.0 0.00 0.00 0.00 53 1027.6
20200601125020 62 355 2.0 4.0 0.00 0.00 0.00 53 1027.5
20200601124533 62 21 2.0 9.0 0.00 0.00 0.00 53 1027.4
20200601124018 62 337 4.0 9.0 0.00 0.00 0.00 53 1027.4
20200601123523 61 360 1.0 8.0 0.00 0.00 0.00 55 1027.4
20200601123036 61 38 2.0 5.0 0.00 0.00 0.00 56 1027.4
20200601122518 61 53 1.0 5.0 0.00 0.00 0.00 57 1027.3
20200601122023 60 5 0.0 5.0 0.00 0.00 0.00 60 1027.4
20200601121526 59 16 1.0 6.0 0.00 0.00 0.00 61 1027.4
20200601121012 58 317 1.0 6.0 0.00 0.00 0.00 62 1027.4
20200601120522 57 25 2.0 5.0 0.00 0.00 0.00 65 1027.3
20200601120027 56 34 1.0 4.0 0.00 0.00 0.00 65 1027.1
20200601115537 55 343 2.0 4.0 0.00 0.00 0.00 66 1027.1
20200601115022 54 333 1.0 5.0 0.00 0.00 0.00 69 1027.0
20200601114527 53 355 1.0 5.0 0.00 0.00 0.00 71 1026.9